S-CUBE

Last updated on Nov. 23, 2016, 1:17 a.m. UTC

1 40898U 98067GY  16327.94818764  .15969025  12639-4  21794-3 0  9993
2 40898  51.6016 285.5559 0001679 237.6761 122.8324 16.49146841 67957

Satellite is not in orbit.